Location: Cornospital
(48.0620°N, 3.3837°W)
Time: 20:25:48
(UTC+00:00)

Cosmos 1459 Rocket - Pass Details

Date: 17 June 2021
Orbit: 937 x 999 km, 83.0° (Epoch: 02 August)

Event Time Altitude Azimuth Distance (km) Brightness Sun altitude
Rises 21:23:24 0° 352° (N) 3,614 8.1 -8.9°
Reaches altitude 10° 21:25:55 10° 354° (N) 2,663 7.3 -9.2°
Maximum altitude 21:31:59 75° 80° (E) 975 4.0 -9.8°
Enters shadow 21:37:54 11° 166° (SSE) 2,603 5.7 -10.4°
